Weather History for Asheville, NC

Change the Weather History Date:

Thursday, September 15, 2011

  Actual Average Record
Temperature  
Mean Temperature 66 °F 67 °F  
Max Temperature 76 °F 77 °F 95 °F (1897)
Min Temperature 56 °F 56 °F 36 °F (1985)
Degree Days  
Heating Degree Days 0 1  
Month to date heating degree days 2 7  
Since 1 July heating degree days 2 9  
Cooling Degree Days 1 3  
Month to date cooling degree days 67 67  
Year to date cooling degree days 1162 824  
Growing Degree Days 16 (Base 50)    
Moisture  
Dew Point 56 °F    
Average Humidity 76    
Maximum Humidity 93    
Minimum Humidity 58    
Precipitation  
Precipitation 0.00 in 0.13 in 1.52 in (1977)
Month to date precipitation 1.89 2.00  
Year to date precipitation 31.37 33.61  
Snow  
Snow 0.00 in 0.00 in 0.00 in ()
Month to date snowfall 0.0 0.0  
Since 1 July snowfall 0.0 0.0  
Since 1 September snowfall 0.0 0.0  
Snow Depth 0.00 in    
Sea Level Pressure  
Sea Level Pressure 29.99 in    
Wind  
Wind Speed 9 mph (NNW)    
Max Wind Speed 25 mph    
Max Gust Speed 33 mph    
Visibility 10 miles    
Events      
T = Trace of Precipitation, MM = Missing Value Source: NWS Daily Summary

Daily Weather History Graph

Daily Weather History Graph

Search for Another Location

Airport:

Trip Planner

Search our weather history database for the weather conditions in past years. The results will help you decide how hot, cold, wet, or windy it might be!

Date:

Astronomy

Sep. 15, 2011 Rise Set
Actual Time 7:12 AM EDT 7:37 PM EDT
Civil Twilight 6:47 AM EDT 8:03 PM EDT
Nautical Twilight 6:17 AM EDT 8:32 PM EDT
Astronomical Twilight 5:46 AM EDT 9:03 PM EDT
Moon 9:02 PM EDT (9/15) 10:10 AM EDT (9/15)
Length of Visible Light 13h 15m
Length of Day
12h 24m
Waning Gibbous, 91% of the Moon is Illuminated
Sep 15
Waning Gibbous
Sep 20
Last Quarter
Sep 27
New
Oct 3
First Quarter
Oct 11
Full

Hourly Weather History & Observations

Time (EDT) Temp. Dew Point Humidity Pressure Visibility Wind Dir Wind Speed Gust Speed Precip Events Conditions
12:54 AM 61.0 °F 57.9 °F 90% 29.96 in 10.0 mi Calm Calm - N/A   Clear
1:54 AM 59.0 °F 57.9 °F 96% 29.96 in 10.0 mi Calm Calm - N/A   Clear
2:54 AM 59.0 °F 57.0 °F 93% 29.93 in 10.0 mi Calm Calm - N/A   Clear
3:54 AM 57.9 °F 55.9 °F 93% 29.92 in 8.0 mi Calm Calm - N/A   Clear
4:54 AM 59.0 °F 55.9 °F 90% 29.92 in 10.0 mi Calm Calm - N/A   Clear
5:54 AM 57.9 °F 55.0 °F 90% 29.91 in 10.0 mi Calm Calm - N/A   Clear
6:54 AM 57.2 °F 55.4 °F 94% 29.99 in 9.0 mi Calm Calm - N/A   Clear
7:54 AM 59.0 °F 55.9 °F 90% 29.94 in 10.0 mi Calm Calm - N/A   Partly Cloudy
8:54 AM 60.1 °F 57.0 °F 90% 29.94 in 10.0 mi Calm Calm - N/A   Mostly Cloudy
9:54 AM 64.0 °F 57.9 °F 80% 29.95 in 10.0 mi Calm Calm - N/A   Clear
10:54 AM 66.9 °F 59.0 °F 76% 29.95 in 10.0 mi SSE 3.5 mph - N/A   Mostly Cloudy
11:54 AM 71.1 °F 60.1 °F 68% 29.96 in 10.0 mi NNW 4.6 mph - N/A   Mostly Cloudy
12:54 PM 75.9 °F 59.0 °F 56% 29.94 in 10.0 mi NNW 8.1 mph - N/A   Partly Cloudy
1:54 PM 75.9 °F 59.0 °F 56% 29.94 in 10.0 mi NNW 18.4 mph 21.9 mph N/A   Scattered Clouds
2:54 PM 75.9 °F 61.0 °F 60% 29.94 in 10.0 mi North 10.4 mph 17.3 mph N/A   Mostly Cloudy
3:54 PM 73.0 °F 61.0 °F 66% 29.94 in 10.0 mi North 13.8 mph 23.0 mph N/A   Partly Cloudy
4:54 PM 72.0 °F 61.0 °F 68% 29.95 in 10.0 mi NNW 16.1 mph 19.6 mph N/A   Overcast
5:54 PM 69.8 °F 60.8 °F 73% 30.03 in 10.0 mi North 15.0 mph 26.5 mph N/A   Scattered Clouds
6:54 PM 64.0 °F 55.0 °F 73% 30.02 in 10.0 mi NNW 23.0 mph 29.9 mph N/A   Overcast
7:54 PM 62.1 °F 54.0 °F 75% 30.05 in 10.0 mi NNW 19.6 mph 26.5 mph N/A   Overcast
8:54 PM 60.1 °F 52.0 °F 75% 30.07 in 10.0 mi North 16.1 mph 25.3 mph N/A   Mostly Cloudy
9:54 PM 57.9 °F 51.1 °F 78% 30.10 in 10.0 mi North 15.0 mph 23.0 mph N/A   Overcast
10:11 PM 57.2 °F 51.8 °F 82% 30.15 in 10.0 mi NNW 17.3 mph 27.6 mph N/A   Overcast
10:54 PM 57.0 °F 51.1 °F 81% 30.11 in 10.0 mi NNW 19.6 mph 26.5 mph N/A   Overcast
11:02 PM 57.2 °F 50.0 °F 77% 30.15 in 10.0 mi NNW 19.6 mph 31.1 mph N/A   Overcast
11:54 PM 57.0 °F 50.0 °F 77% 30.11 in 10.0 mi NNW 17.3 mph 25.3 mph N/A   Overcast